PIMOHWEATHER Station Historical Data
Daily Summary for November 19, 2020 Units:  Metric    English   Both
Daily Weekly Monthly Yearly
  High: Low: Average:
Temperature: 33.0 °C 26.0 °C 29 °C
Dew Point: 24.0 °C 20.0 °C 22.5 °C
Humidity: 81% 54% 68%
Wind Speed: 34km/h 0km/h 10.5km/h
Wind Gust: 44km/h - -
Wind- - ESE
Pressure: 1014.5 hPa 1010.5 hPa -
Precipitation: 0.00 mm    
 
 
Tabular Data for November 19, 2020
Time Temperature Dew Point Pressure Wind Wind Speed Wind Gust Humidity Rainfall Rate (Hourly) solar
00:04 27.0 °C 23.0 °C 1013.4 hPa NE 4 km/h 4 km/h 78% 0.00 mm 0.00 W/m2
00:09 27.0 °C 23.0 °C 1013.6 hPa NE 2 km/h 4 km/h 78% 0.00 mm 0.00 W/m2
00:14 27.0 °C 23.0 °C 1013.4 hPa NE 1 km/h 4 km/h 78% 0.00 mm 0.00 W/m2
00:19 27.0 °C 23.0 °C 1013.3 hPa Calm     78% 0.00 mm 0.00 W/m2
00:24 27.0 °C 23.0 °C 1013.3 hPa Calm     78% 0.00 mm 0.00 W/m2
00:29 27.0 °C 23.0 °C 1013.4 hPa Calm     78% 0.00 mm 0.00 W/m2
00:34 27.0 °C 23.0 °C 1013.3 hPa Calm     78% 0.00 mm 0.00 W/m2
00:39 27.0 °C 23.0 °C 1013.3 hPa Calm     77% 0.00 mm 0.00 W/m2
00:44 27.0 °C 23.0 °C 1013.3 hPa Calm     77% 0.00 mm 0.00 W/m2
00:49 27.0 °C 23.0 °C 1013.3 hPa NE 1 km/h 4 km/h 77% 0.00 mm 0.00 W/m2
00:54 27.0 °C 23.0 °C 1013.3 hPa NE 5 km/h 8 km/h 77% 0.00 mm 0.00 W/m2
00:59 27.0 °C 23.0 °C 1013.1 hPa NE 4 km/h 4 km/h 77% 0.00 mm 0.00 W/m2
01:04 27.0 °C 23.0 °C 1013.2 hPa NE 4 km/h 4 km/h 77% 0.00 mm 0.00 W/m2
01:09 27.0 °C 23.0 °C 1013.1 hPa NE 1 km/h 4 km/h 77% 0.00 mm 0.00 W/m2
01:14 27.0 °C 23.0 °C 1013.2 hPa Calm     77% 0.00 mm 0.00 W/m2
01:19 27.0 °C 23.0 °C 1013.1 hPa Calm     77% 0.00 mm 0.00 W/m2
01:24 27.0 °C 23.0 °C 1013.1 hPa Calm     77% 0.00 mm 0.00 W/m2
01:29 27.0 °C 23.0 °C 1013.1 hPa Calm     76% 0.00 mm 0.00 W/m2
01:34 27.0 °C 23.0 °C 1013.1 hPa Calm     76% 0.00 mm 0.00 W/m2
01:39 27.0 °C 23.0 °C 1013.1 hPa Calm     76% 0.00 mm 0.00 W/m2
01:44 28.0 °C 23.0 °C 1012.9 hPa Calm     75% 0.00 mm 0.00 W/m2
01:49 28.0 °C 23.0 °C 1012.8 hPa Calm     75% 0.00 mm 0.00 W/m2
01:54 28.0 °C 23.0 °C 1013.0 hPa Calm     75% 0.00 mm 0.00 W/m2
01:59 28.0 °C 23.0 °C 1012.7 hPa Calm     75% 0.00 mm 0.00 W/m2
02:04 28.0 °C 23.0 °C 1012.6 hPa NE 6 km/h 8 km/h 76% 0.00 mm 0.00 W/m2
02:09 28.0 °C 23.0 °C 1012.6 hPa NE 5 km/h 8 km/h 77% 0.00 mm 0.00 W/m2
02:14 27.0 °C 23.0 °C 1012.7 hPa NE 6 km/h 8 km/h 78% 0.00 mm 0.00 W/m2
02:19 27.0 °C 23.0 °C 1012.7 hPa NE 5 km/h 8 km/h 78% 0.00 mm 0.00 W/m2
02:24 27.0 °C 23.0 °C 1012.6 hPa NE 5 km/h 8 km/h 78% 0.00 mm 0.00 W/m2
02:29 27.0 °C 23.0 °C 1012.6 hPa NE 5 km/h 8 km/h 78% 0.00 mm 0.00 W/m2
02:34 27.0 °C 23.0 °C 1012.8 hPa NE 4 km/h 4 km/h 78% 0.00 mm 0.00 W/m2
02:39 27.0 °C 23.0 °C 1012.7 hPa NE 4 km/h 4 km/h 78% 0.00 mm 0.00 W/m2
02:44 27.0 °C 23.0 °C 1012.6 hPa NE 1 km/h 4 km/h 78% 0.00 mm 0.00 W/m2
02:49 27.0 °C 23.0 °C 1012.6 hPa Calm   4 km/h 78% 0.00 mm 0.00 W/m2
02:54 27.0 °C 23.0 °C 1012.7 hPa NE 4 km/h 4 km/h 78% 0.00 mm 0.00 W/m2
02:59 27.0 °C 23.0 °C 1012.5 hPa NE 4 km/h 4 km/h 78% 0.00 mm 0.00 W/m2
03:04 27.0 °C 23.0 °C 1012.5 hPa NE 4 km/h 4 km/h 77% 0.00 mm 0.00 W/m2
03:09 27.0 °C 23.0 °C 1012.6 hPa NE 4 km/h 4 km/h 77% 0.00 mm 0.00 W/m2
03:14 27.0 °C 23.0 °C 1012.6 hPa NE 5 km/h 8 km/h 77% 0.00 mm 0.00 W/m2
03:19 27.0 °C 23.0 °C 1012.5 hPa NE 4 km/h 4 km/h 77% 0.00 mm 0.00 W/m2
03:24 27.0 °C 23.0 °C 1012.5 hPa NE 4 km/h 4 km/h 77% 0.00 mm 0.00 W/m2
03:29 27.0 °C 23.0 °C 1012.5 hPa NE 5 km/h 8 km/h 77% 0.00 mm 0.00 W/m2
03:34 27.0 °C 23.0 °C 1012.5 hPa NE 4 km/h 4 km/h 77% 0.00 mm 0.00 W/m2
03:39 27.0 °C 23.0 °C 1012.6 hPa NE 4 km/h 4 km/h 77% 0.00 mm 0.00 W/m2
03:44 27.0 °C 23.0 °C 1012.5 hPa NE 4 km/h 4 km/h 77% 0.00 mm 0.00 W/m2
03:49 27.0 °C 23.0 °C 1012.5 hPa NE 5 km/h 8 km/h 78% 0.00 mm 0.00 W/m2
03:54 27.0 °C 23.0 °C 1012.6 hPa NE 1 km/h 4 km/h 78% 0.00 mm 0.00 W/m2
03:59 27.0 °C 23.0 °C 1012.4 hPa Calm     78% 0.00 mm 0.00 W/m2
04:04 27.0 °C 23.0 °C 1012.7 hPa Calm     78% 0.00 mm 0.00 W/m2
04:09 27.0 °C 23.0 °C 1012.8 hPa NE 4 km/h 4 km/h 78% 0.00 mm 0.00 W/m2
04:14 27.0 °C 23.0 °C 1012.8 hPa NE 4 km/h 4 km/h 78% 0.00 mm 0.00 W/m2
04:19 27.0 °C 23.0 °C 1012.8 hPa NE 1 km/h 4 km/h 78% 0.00 mm 0.00 W/m2
04:24 27.0 °C 23.0 °C 1012.8 hPa NE 5 km/h 8 km/h 78% 0.00 mm 0.00 W/m2
04:29 27.0 °C 23.0 °C 1012.8 hPa NE 5 km/h 8 km/h 78% 0.00 mm 0.00 W/m2
04:34 27.0 °C 23.0 °C 1012.8 hPa NE 5 km/h 8 km/h 78% 0.00 mm 0.00 W/m2
04:39 27.0 °C 23.0 °C 1012.9 hPa NE 5 km/h 8 km/h 78% 0.00 mm 0.00 W/m2
04:44 27.0 °C 23.0 °C 1012.9 hPa NE 9 km/h 12 km/h 78% 0.00 mm 0.00 W/m2
04:49 27.0 °C 23.0 °C 1012.9 hPa NE 8 km/h 8 km/h 78% 0.00 mm 0.00 W/m2
04:54 27.0 °C 23.0 °C 1013.0 hPa NE 5 km/h 8 km/h 79% 0.00 mm 0.00 W/m2
04:59 26.0 °C 23.0 °C 1012.9 hPa NE 5 km/h 8 km/h 79% 0.00 mm 0.00 W/m2
05:04 26.0 °C 23.0 °C 1012.9 hPa NE 4 km/h 8 km/h 79% 0.00 mm 0.00 W/m2
05:09 26.0 °C 23.0 °C 1013.1 hPa NE 2 km/h 4 km/h 79% 0.00 mm 0.00 W/m2
05:14 26.0 °C 23.0 °C 1013.0 hPa NE 6 km/h 8 km/h 79% 0.00 mm 0.00 W/m2
05:19 26.0 °C 23.0 °C 1013.1 hPa NE 6 km/h 8 km/h 79% 0.00 mm 0.00 W/m2
05:24 26.0 °C 23.0 °C 1013.0 hPa NE 5 km/h 8 km/h 79% 0.00 mm 0.00 W/m2
05:29 26.0 °C 22.0 °C 1013.1 hPa NE 6 km/h 8 km/h 79% 0.00 mm 0.00 W/m2
05:34 26.0 °C 22.0 °C 1013.1 hPa NE 3 km/h 4 km/h 79% 0.00 mm 0.00 W/m2
05:39 26.0 °C 23.0 °C 1013.1 hPa NE 8 km/h 8 km/h 80% 0.00 mm 0.00 W/m2
05:44 26.0 °C 23.0 °C 1013.3 hPa NE 8 km/h 8 km/h 80% 0.00 mm 0.00 W/m2
05:49 26.0 °C 23.0 °C 1013.2 hPa NE 6 km/h 8 km/h 80% 0.00 mm 0.00 W/m2
05:54 26.0 °C 22.0 °C 1013.1 hPa NE 9 km/h 12 km/h 80% 0.00 mm 0.00 W/m2
05:59 26.0 °C 22.0 °C 1013.1 hPa NNE 12 km/h 12 km/h 80% 0.00 mm 1.71 W/m2
06:04 26.0 °C 22.0 °C 1013.1 hPa North 10 km/h 12 km/h 80% 0.00 mm 4.28 W/m2
06:09 26.0 °C 23.0 °C 1013.1 hPa North 10 km/h 12 km/h 81% 0.00 mm 7.70 W/m2
06:14 26.0 °C 23.0 °C 1013.2 hPa NNE 8 km/h 12 km/h 81% 0.00 mm 11.25 W/m2
06:19 26.0 °C 23.0 °C 1013.3 hPa North 6 km/h 8 km/h 81% 0.00 mm 15.53 W/m2
06:24 26.0 °C 23.0 °C 1013.3 hPa NNE 5 km/h 8 km/h 81% 0.00 mm 19.94 W/m2
06:29 26.0 °C 23.0 °C 1013.3 hPa North 9 km/h 12 km/h 81% 0.00 mm 23.36 W/m2
06:34 26.0 °C 22.0 °C 1013.3 hPa North 10 km/h 12 km/h 80% 0.00 mm 26.42 W/m2
06:39 26.0 °C 22.0 °C 1013.4 hPa North 7 km/h 12 km/h 80% 0.00 mm 28.99 W/m2
06:44 26.0 °C 22.0 °C 1013.3 hPa North 4 km/h 8 km/h 80% 0.00 mm 30.70 W/m2
06:49 26.0 °C 22.0 °C 1013.5 hPa North 10 km/h 12 km/h 79% 0.00 mm 33.39 W/m2
06:54 26.0 °C 22.0 °C 1013.6 hPa North 11 km/h 16 km/h 79% 0.00 mm 35.11 W/m2
06:59 26.0 °C 22.0 °C 1013.5 hPa NNE 9 km/h 12 km/h 79% 0.00 mm 37.19 W/m2
07:04 26.0 °C 22.0 °C 1013.6 hPa NNE 8 km/h 8 km/h 78% 0.00 mm 39.88 W/m2
07:09 27.0 °C 23.0 °C 1013.6 hPa NNE 9 km/h 12 km/h 78% 0.00 mm 41.96 W/m2
07:14 27.0 °C 22.0 °C 1013.6 hPa NNE 6 km/h 8 km/h 77% 0.00 mm 43.80 W/m2
07:19 27.0 °C 23.0 °C 1013.6 hPa NNE 6 km/h 8 km/h 76% 0.00 mm 45.02 W/m2
07:24 27.0 °C 23.0 °C 1013.6 hPa North 5 km/h 8 km/h 76% 0.00 mm 45.02 W/m2
07:29 27.0 °C 22.0 °C 1013.5 hPa North 6 km/h 8 km/h 75% 0.00 mm 48.56 W/m2
07:34 27.0 °C 23.0 °C 1013.5 hPa North 10 km/h 16 km/h 75% 0.00 mm 49.79 W/m2
07:39 28.0 °C 23.0 °C 1013.7 hPa NNE 8 km/h 12 km/h 74% 0.00 mm 55.05 W/m2
07:44 28.0 °C 23.0 °C 1013.7 hPa NE 14 km/h 20 km/h 73% 0.00 mm 85.88 W/m2
07:49 28.0 °C 23.0 °C 1013.8 hPa NNE 5 km/h 8 km/h 71% 0.00 mm 87.59 W/m2
07:54 28.0 °C 23.0 °C 1013.8 hPa North 9 km/h 12 km/h 71% 0.00 mm 76.70 W/m2
07:59 28.0 °C 23.0 °C 1014.0 hPa North 11 km/h 12 km/h 71% 0.00 mm 212.98 W/m2
08:04 29.0 °C 23.0 °C 1014.1 hPa North 10 km/h 12 km/h 70% 0.00 mm 251.15 W/m2
08:09 29.0 °C 23.0 °C 1014.3 hPa North 12 km/h 16 km/h 70% 0.00 mm 266.32 W/m2
08:14 29.0 °C 23.0 °C 1014.3 hPa NNW 9 km/h 12 km/h 69% 0.00 mm 286.63 W/m2
08:19 30.0 °C 23.0 °C 1014.2 hPa NE 12 km/h 16 km/h 67% 0.00 mm 287.98 W/m2
08:24 30.0 °C 23.0 °C 1014.3 hPa NE 13 km/h 16 km/h 66% 0.00 mm 286.63 W/m2
08:29 30.0 °C 23.0 °C 1014.3 hPa North 8 km/h 12 km/h 65% 0.00 mm 322.72 W/m2
08:34 30.0 °C 23.0 °C 1014.3 hPa North 12 km/h 16 km/h 65% 0.00 mm 391.72 W/m2
08:39 30.0 °C 23.0 °C 1014.3 hPa North 8 km/h 8 km/h 65% 0.00 mm 435.03 W/m2
08:44 31.0 °C 23.0 °C 1014.4 hPa NE 5 km/h 12 km/h 64% 0.00 mm 454.11 W/m2
08:49 31.0 °C 23.0 °C 1014.3 hPa North 11 km/h 12 km/h 63% 0.00 mm 475.89 W/m2
08:54 31.0 °C 23.0 °C 1014.5 hPa NE 9 km/h 12 km/h 65% 0.00 mm 508.79 W/m2
08:59 30.0 °C 23.0 °C 1014.2 hPa North 10 km/h 12 km/h 64% 0.00 mm 592.47 W/m2
09:04 31.0 °C 23.0 °C 1014.2 hPa North 10 km/h 16 km/h 63% 0.00 mm 593.45 W/m2
09:09 31.0 °C 23.0 °C 1014.2 hPa NNW 12 km/h 16 km/h 63% 0.00 mm 575.59 W/m2
09:14 31.0 °C 23.0 °C 1014.1 hPa North 12 km/h 12 km/h 62% 0.00 mm 581.22 W/m2
09:19 31.0 °C 23.0 °C 1014.1 hPa North 8 km/h 12 km/h 62% 0.00 mm 622.45 W/m2
09:24 31.0 °C 22.0 °C 1014.0 hPa NNE 10 km/h 12 km/h 60% 0.00 mm 611.68 W/m2
09:29 31.0 °C 23.0 °C 1014.2 hPa North 14 km/h 16 km/h 61% 0.00 mm 607.77 W/m2
09:34 31.0 °C 23.0 °C 1014.2 hPa NNW 14 km/h 16 km/h 62% 0.00 mm 556.14 W/m2
09:39 31.0 °C 23.0 °C 1014.0 hPa SSE 14 km/h 16 km/h 62% 0.00 mm 203.44 W/m2
09:44 31.0 °C 23.0 °C 1014.0 hPa NNW 12 km/h 16 km/h 62% 0.00 mm 110.59 W/m2
09:49 30.0 °C 23.0 °C 1013.9 hPa WNW 17 km/h 20 km/h 67% 0.00 mm 115.73 W/m2
09:54 30.0 °C 23.0 °C 1013.9 hPa WSW 10 km/h 16 km/h 68% 0.00 mm 110.10 W/m2
09:59 30.0 °C 23.0 °C 1013.9 hPa West 16 km/h 24 km/h 68% 0.00 mm 111.44 W/m2
10:04 30.0 °C 23.0 °C 1013.9 hPa SW 25 km/h 32 km/h 69% 0.00 mm 133.10 W/m2
10:09 30.0 °C 23.0 °C 1014.0 hPa SW 24 km/h 32 km/h 70% 0.00 mm 162.58 W/m2
10:14 30.0 °C 23.0 °C 1013.9 hPa NNW 9 km/h 16 km/h 70% 0.00 mm 173.84 W/m2
10:19 30.0 °C 23.0 °C 1014.0 hPa North 14 km/h 20 km/h 68% 0.00 mm 152.68 W/m2
10:24 30.0 °C 23.0 °C 1014.1 hPa North 10 km/h 16 km/h 67% 0.00 mm 159.16 W/m2
10:29 30.0 °C 23.0 °C 1013.8 hPa West 12 km/h 16 km/h 67% 0.00 mm 163.93 W/m2
10:34 30.0 °C 23.0 °C 1013.8 hPa North 5 km/h 8 km/h 67% 0.00 mm 604.70 W/m2
10:39 30.0 °C 23.0 °C 1013.5 hPa North 17 km/h 20 km/h 66% 0.00 mm 586.48 W/m2
10:44 30.0 °C 23.0 °C 1013.3 hPa North 20 km/h 28 km/h 66% 0.00 mm 596.39 W/m2
10:49 30.0 °C 23.0 °C 1013.3 hPa NNW 17 km/h 20 km/h 65% 0.00 mm 622.08 W/m2
10:54 31.0 °C 23.0 °C 1013.3 hPa WSW 14 km/h 24 km/h 64% 0.00 mm 634.55 W/m2
10:59 31.0 °C 23.0 °C 1013.3 hPa WSW 18 km/h 20 km/h 63% 0.00 mm 663.18 W/m2
11:04 31.0 °C 23.0 °C 1013.3 hPa NNW 5 km/h 8 km/h 62% 0.00 mm 683.24 W/m2
11:09 31.0 °C 23.0 °C 1013.3 hPa North 18 km/h 24 km/h 62% 0.00 mm 660.62 W/m2
11:14 32.0 °C 23.0 °C 1013.0 hPa North 16 km/h 24 km/h 61% 0.00 mm 616.82 W/m2
11:19 32.0 °C 23.0 °C 1013.1 hPa WSW 16 km/h 20 km/h 60% 0.00 mm 608.13 W/m2
11:24 32.0 °C 23.0 °C 1012.9 hPa West 18 km/h 24 km/h 60% 0.00 mm 663.18 W/m2
11:29 32.0 °C 23.0 °C 1012.8 hPa WSW 22 km/h 32 km/h 60% 0.00 mm 665.87 W/m2
11:34 32.0 °C 23.0 °C 1012.8 hPa SSW 27 km/h 28 km/h 59% 0.00 mm 735.73 W/m2
11:39 32.0 °C 23.0 °C 1012.7 hPa WNW 15 km/h 20 km/h 59% 0.00 mm 700.50 W/m2
11:44 32.0 °C 23.0 °C 1012.8 hPa SW 24 km/h 36 km/h 61% 0.00 mm 692.79 W/m2
11:49 32.0 °C 23.0 °C 1012.5 hPa West 15 km/h 20 km/h 61% 0.00 mm 759.95 W/m2
11:54 32.0 °C 23.0 °C 1012.7 hPa NW 8 km/h 12 km/h 60% 0.00 mm 751.75 W/m2
11:59 32.0 °C 24.0 °C 1012.4 hPa WNW 26 km/h 36 km/h 60% 0.00 mm 722.64 W/m2
12:04 32.0 °C 24.0 °C 1012.3 hPa WSW 32 km/h 40 km/h 60% 0.00 mm 695.72 W/m2
12:09 32.0 °C 23.0 °C 1012.2 hPa SW 23 km/h 28 km/h 61% 0.00 mm 262.41 W/m2
12:14 31.0 °C 23.0 °C 1012.1 hPa SSW 21 km/h 28 km/h 62% 0.00 mm 221.18 W/m2
12:19 32.0 °C 23.0 °C 1012.1 hPa NW 13 km/h 16 km/h 62% 0.00 mm 680.55 W/m2
12:24 32.0 °C 23.0 °C 1012.2 hPa WSW 24 km/h 28 km/h 63% 0.00 mm 197.32 W/m2
12:29 31.0 °C 23.0 °C 1012.3 hPa NNW 15 km/h 24 km/h 64% 0.00 mm 160.51 W/m2
12:34 31.0 °C 24.0 °C 1012.0 hPa WSW 21 km/h 28 km/h 65% 0.00 mm 163.93 W/m2
12:39 31.0 °C 23.0 °C 1011.9 hPa SW 23 km/h 32 km/h 65% 0.00 mm 631.62 W/m2
12:44 31.0 °C 23.0 °C 1011.8 hPa WSW 27 km/h 40 km/h 64% 0.00 mm 673.21 W/m2
12:49 32.0 °C 23.0 °C 1011.8 hPa SW 28 km/h 40 km/h 60% 0.00 mm 694.01 W/m2
12:54 32.0 °C 23.0 °C 1011.7 hPa SW 34 km/h 44 km/h 63% 0.00 mm 704.90 W/m2
12:59 32.0 °C 23.0 °C 1011.6 hPa SW 28 km/h 40 km/h 63% 0.00 mm 647.16 W/m2
13:04 32.0 °C 24.0 °C 1011.6 hPa North 15 km/h 24 km/h 61% 0.00 mm 703.55 W/m2
13:09 33.0 °C 24.0 °C 1011.5 hPa SSE 19 km/h 28 km/h 60% 0.00 mm 725.70 W/m2
13:14 33.0 °C 24.0 °C 1011.5 hPa WSW 23 km/h 32 km/h 60% 0.00 mm 761.29 W/m2
13:19 33.0 °C 24.0 °C 1011.4 hPa SW 27 km/h 28 km/h 62% 0.00 mm 655.84 W/m2
13:24 32.0 °C 24.0 °C 1011.4 hPa WNW 21 km/h 24 km/h 63% 0.00 mm 178.24 W/m2
13:29 32.0 °C 24.0 °C 1011.4 hPa WSW 21 km/h 24 km/h 64% 0.00 mm 256.78 W/m2
13:34 32.0 °C 23.0 °C 1011.2 hPa WSW 20 km/h 28 km/h 63% 0.00 mm 621.59 W/m2
13:39 32.0 °C 24.0 °C 1011.4 hPa NW 23 km/h 24 km/h 62% 0.00 mm 576.08 W/m2
13:44 32.0 °C 24.0 °C 1011.1 hPa WSW 24 km/h 32 km/h 62% 0.00 mm 557.36 W/m2
13:49 32.0 °C 24.0 °C 1011.1 hPa WSW 19 km/h 24 km/h 61% 0.00 mm 517.48 W/m2
13:54 32.0 °C 24.0 °C 1011.2 hPa SW 24 km/h 28 km/h 61% 0.00 mm 524.45 W/m2
13:59 32.0 °C 24.0 °C 1011.0 hPa SSW 25 km/h 32 km/h 62% 0.00 mm 507.45 W/m2
14:04 32.0 °C 24.0 °C 1010.9 hPa SW 22 km/h 32 km/h 62% 0.00 mm 483.59 W/m2
14:09 32.0 °C 24.0 °C 1011.0 hPa WSW 32 km/h 40 km/h 63% 0.00 mm 493.13 W/m2
14:14 33.0 °C 24.0 °C 1011.0 hPa NW 18 km/h 24 km/h 62% 0.00 mm 498.89 W/m2
14:19 33.0 °C 24.0 °C 1011.1 hPa NNW 19 km/h 24 km/h 62% 0.00 mm 492.77 W/m2
14:24 32.0 °C 24.0 °C 1011.0 hPa NW 21 km/h 28 km/h 61% 0.00 mm 480.66 W/m2
14:29 32.0 °C 24.0 °C 1010.9 hPa NW 26 km/h 32 km/h 61% 0.00 mm 454.60 W/m2
14:34 32.0 °C 24.0 °C 1010.8 hPa NNW 14 km/h 20 km/h 61% 0.00 mm 392.08 W/m2
14:39 32.0 °C 24.0 °C 1010.7 hPa North 11 km/h 16 km/h 62% 0.00 mm 198.18 W/m2
14:44 32.0 °C 24.0 °C 1010.7 hPa NNW 20 km/h 24 km/h 64% 0.00 mm 354.78 W/m2
14:49 32.0 °C 24.0 °C 1010.7 hPa West 25 km/h 32 km/h 64% 0.00 mm 365.66 W/m2
14:54 32.0 °C 24.0 °C 1010.7 hPa SW 26 km/h 32 km/h 65% 0.00 mm 253.24 W/m2
14:59 31.0 °C 24.0 °C 1010.7 hPa SW 21 km/h 32 km/h 66% 0.00 mm 138.73 W/m2
15:04 31.0 °C 24.0 °C 1010.8 hPa West 14 km/h 28 km/h 66% 0.00 mm 113.16 W/m2
15:09 31.0 °C 24.0 °C 1010.7 hPa SW 16 km/h 20 km/h 66% 0.00 mm 114.02 W/m2
15:14 31.0 °C 24.0 °C 1010.6 hPa West 26 km/h 36 km/h 65% 0.00 mm 116.22 W/m2
15:19 31.0 °C 24.0 °C 1010.6 hPa SW 22 km/h 28 km/h 66% 0.00 mm 126.61 W/m2
15:24 31.0 °C 24.0 °C 1010.5 hPa WSW 19 km/h 24 km/h 65% 0.00 mm 144.36 W/m2
15:29 31.0 °C 24.0 °C 1010.5 hPa SW 20 km/h 28 km/h 65% 0.00 mm 145.70 W/m2
15:34 31.0 °C 24.0 °C 1010.7 hPa SSW 16 km/h 20 km/h 65% 0.00 mm 114.87 W/m2
15:39 31.0 °C 24.0 °C 1010.9 hPa SW 17 km/h 20 km/h 65% 0.00 mm 105.33 W/m2
15:44 31.0 °C 24.0 °C 1010.8 hPa SW 17 km/h 20 km/h 65% 0.00 mm 98.36 W/m2
15:49 31.0 °C 24.0 °C 1010.7 hPa North 4 km/h 8 km/h 65% 0.00 mm 82.33 W/m2
15:54 31.0 °C 24.0 °C 1010.9 hPa WSW 17 km/h 20 km/h 65% 0.00 mm 82.33 W/m2
15:59 31.0 °C 24.0 °C 1010.9 hPa SW 23 km/h 32 km/h 66% 0.00 mm 79.76 W/m2
16:04 31.0 °C 24.0 °C 1010.9 hPa SW 14 km/h 16 km/h 66% 0.00 mm 67.65 W/m2
16:09 31.0 °C 24.0 °C 1010.9 hPa North 10 km/h 12 km/h 66% 0.00 mm 78.90 W/m2
16:14 31.0 °C 24.0 °C 1011.0 hPa North 5 km/h 8 km/h 65% 0.00 mm 78.90 W/m2
16:19 31.0 °C 24.0 °C 1011.2 hPa North 9 km/h 12 km/h 65% 0.00 mm 66.80 W/m2
16:24 31.0 °C 24.0 °C 1011.1 hPa WSW 6 km/h 8 km/h 64% 0.00 mm 45.02 W/m2
16:29 31.0 °C 24.0 °C 1011.0 hPa NNW 5 km/h 8 km/h 64% 0.00 mm 32.05 W/m2
16:34 31.0 °C 24.0 °C 1011.2 hPa North 6 km/h 8 km/h 65% 0.00 mm 28.99 W/m2
16:39 31.0 °C 24.0 °C 1011.2 hPa North 1 km/h 4 km/h 65% 0.00 mm 28.63 W/m2
16:44 31.0 °C 22.0 °C 1011.1 hPa NE 4 km/h 8 km/h 58% 0.00 mm 23.85 W/m2
16:49 31.0 °C 23.0 °C 1011.3 hPa North 6 km/h 8 km/h 60% 0.00 mm 21.65 W/m2
16:54 31.0 °C 24.0 °C 1011.4 hPa North 25 km/h 28 km/h 66% 0.00 mm 19.08 W/m2
16:59 31.0 °C 24.0 °C 1011.4 hPa North 12 km/h 16 km/h 67% 0.00 mm 17.73 W/m2
17:04 31.0 °C 21.0 °C 1011.4 hPa NNE 7 km/h 12 km/h 58% 0.00 mm 15.17 W/m2
17:09 31.0 °C 21.0 °C 1011.5 hPa NNE 8 km/h 12 km/h 55% 0.00 mm 12.11 W/m2
17:14 31.0 °C 20.0 °C 1011.5 hPa NNE 9 km/h 12 km/h 54% 0.00 mm 8.56 W/m2
17:19 31.0 °C 21.0 °C 1011.5 hPa North 12 km/h 20 km/h 56% 0.00 mm 6.48 W/m2
17:24 31.0 °C 21.0 °C 1011.5 hPa North 12 km/h 16 km/h 56% 0.00 mm 3.79 W/m2
17:29 31.0 °C 21.0 °C 1011.5 hPa NNE 13 km/h 16 km/h 57% 0.00 mm 0.85 W/m2
17:34 30.0 °C 21.0 °C 1011.7 hPa North 10 km/h 12 km/h 57% 0.00 mm 0.00 W/m2
17:39 30.0 °C 21.0 °C 1011.7 hPa ENE 20 km/h 24 km/h 58% 0.00 mm 0.00 W/m2
17:44 30.0 °C 21.0 °C 1011.6 hPa NNE 16 km/h 20 km/h 58% 0.00 mm 0.00 W/m2
17:49 30.0 °C 21.0 °C 1011.8 hPa NE 23 km/h 32 km/h 59% 0.00 mm 0.00 W/m2
17:54 30.0 °C 21.0 °C 1011.8 hPa ENE 16 km/h 20 km/h 59% 0.00 mm 0.00 W/m2
17:59 30.0 °C 21.0 °C 1011.9 hPa ENE 19 km/h 24 km/h 60% 0.00 mm 0.00 W/m2
18:04 30.0 °C 21.0 °C 1012.1 hPa ENE 17 km/h 20 km/h 60% 0.00 mm 0.00 W/m2
18:09 30.0 °C 21.0 °C 1012.1 hPa NE 10 km/h 12 km/h 60% 0.00 mm 0.00 W/m2
18:14 30.0 °C 21.0 °C 1012.2 hPa ENE 16 km/h 24 km/h 61% 0.00 mm 0.00 W/m2
18:19 30.0 °C 21.0 °C 1012.3 hPa ENE 15 km/h 20 km/h 61% 0.00 mm 0.00 W/m2
18:24 30.0 °C 21.0 °C 1012.3 hPa ENE 11 km/h 16 km/h 62% 0.00 mm 0.00 W/m2
18:29 30.0 °C 21.0 °C 1012.3 hPa NE 14 km/h 16 km/h 62% 0.00 mm 0.00 W/m2
18:34 29.0 °C 21.0 °C 1012.4 hPa ENE 12 km/h 20 km/h 62% 0.00 mm 0.00 W/m2
18:39 29.0 °C 21.0 °C 1012.5 hPa NE 12 km/h 16 km/h 63% 0.00 mm 0.00 W/m2
18:44 29.0 °C 21.0 °C 1012.5 hPa NNE 9 km/h 12 km/h 63% 0.00 mm 0.00 W/m2
18:49 29.0 °C 21.0 °C 1012.6 hPa NNE 7 km/h 8 km/h 63% 0.00 mm 0.00 W/m2
18:54 29.0 °C 21.0 °C 1012.6 hPa NNE 6 km/h 12 km/h 63% 0.00 mm 0.00 W/m2
18:59 29.0 °C 22.0 °C 1012.7 hPa NE 8 km/h 8 km/h 64% 0.00 mm 0.00 W/m2
19:04 29.0 °C 22.0 °C 1012.7 hPa NE 10 km/h 12 km/h 64% 0.00 mm 0.00 W/m2
19:09 29.0 °C 21.0 °C 1012.8 hPa NNE 6 km/h 8 km/h 64% 0.00 mm 0.00 W/m2
19:14 29.0 °C 21.0 °C 1012.8 hPa NNE 12 km/h 16 km/h 64% 0.00 mm 0.00 W/m2
19:19 29.0 °C 21.0 °C 1012.9 hPa NNE 6 km/h 12 km/h 64% 0.00 mm 0.00 W/m2
19:24 29.0 °C 22.0 °C 1013.0 hPa NNE 7 km/h 12 km/h 65% 0.00 mm 0.00 W/m2
19:29 29.0 °C 22.0 °C 1013.0 hPa NE 10 km/h 12 km/h 65% 0.00 mm 0.00 W/m2
19:34 29.0 °C 21.0 °C 1012.9 hPa NE 10 km/h 12 km/h 65% 0.00 mm 0.00 W/m2
19:39 29.0 °C 21.0 °C 1013.0 hPa NNE 9 km/h 12 km/h 65% 0.00 mm 0.00 W/m2
19:44 29.0 °C 21.0 °C 1013.0 hPa NE 11 km/h 16 km/h 65% 0.00 mm 0.00 W/m2
19:49 29.0 °C 21.0 °C 1013.2 hPa NE 8 km/h 12 km/h 65% 0.00 mm 0.00 W/m2
19:54 29.0 °C 21.0 °C 1013.2 hPa ENE 12 km/h 12 km/h 65% 0.00 mm 0.00 W/m2
19:59 29.0 °C 21.0 °C 1013.2 hPa ENE 10 km/h 12 km/h 65% 0.00 mm 0.00 W/m2
20:04 29.0 °C 21.0 °C 1013.1 hPa NE 12 km/h 16 km/h 65% 0.00 mm 0.00 W/m2
20:09 28.0 °C 21.0 °C 1013.1 hPa ENE 13 km/h 16 km/h 65% 0.00 mm 0.00 W/m2
20:14 28.0 °C 21.0 °C 1013.0 hPa NE 10 km/h 12 km/h 66% 0.00 mm 0.00 W/m2
20:19 28.0 °C 21.0 °C 1013.1 hPa NE 5 km/h 8 km/h 66% 0.00 mm 0.00 W/m2
20:24 28.0 °C 21.0 °C 1013.3 hPa NNE 7 km/h 12 km/h 66% 0.00 mm 0.00 W/m2
20:29 28.0 °C 21.0 °C 1013.2 hPa ENE 9 km/h 12 km/h 66% 0.00 mm 0.00 W/m2
20:34 28.0 °C 21.0 °C 1013.3 hPa NE 10 km/h 12 km/h 66% 0.00 mm 0.00 W/m2
20:39 28.0 °C 21.0 °C 1013.3 hPa NE 9 km/h 12 km/h 66% 0.00 mm 0.00 W/m2
20:44 28.0 °C 21.0 °C 1013.3 hPa NE 8 km/h 12 km/h 66% 0.00 mm 0.00 W/m2
20:49 28.0 °C 21.0 °C 1013.3 hPa ENE 10 km/h 16 km/h 66% 0.00 mm 0.00 W/m2
20:54 28.0 °C 21.0 °C 1013.4 hPa ENE 9 km/h 12 km/h 66% 0.00 mm 0.00 W/m2
20:59 28.0 °C 21.0 °C 1013.4 hPa ENE 15 km/h 20 km/h 66% 0.00 mm 0.00 W/m2
21:04 28.0 °C 21.0 °C 1013.4 hPa ENE 18 km/h 20 km/h 65% 0.00 mm 0.00 W/m2
21:09 28.0 °C 21.0 °C 1013.5 hPa ENE 18 km/h 24 km/h 65% 0.00 mm 0.00 W/m2
21:14 28.0 °C 21.0 °C 1013.5 hPa ENE 17 km/h 24 km/h 65% 0.00 mm 0.00 W/m2
21:19 28.0 °C 21.0 °C 1013.4 hPa ENE 15 km/h 20 km/h 64% 0.00 mm 0.00 W/m2
21:24 28.0 °C 21.0 °C 1013.6 hPa ENE 14 km/h 16 km/h 64% 0.00 mm 0.00 W/m2
21:29 28.0 °C 21.0 °C 1013.6 hPa NE 4 km/h 4 km/h 64% 0.00 mm 0.00 W/m2
21:34 28.0 °C 21.0 °C 1013.7 hPa NE 6 km/h 8 km/h 64% 0.00 mm 0.00 W/m2
21:39 28.0 °C 21.0 °C 1013.6 hPa NNE 6 km/h 8 km/h 65% 0.00 mm 0.00 W/m2
21:44 28.0 °C 21.0 °C 1013.6 hPa NNE 6 km/h 12 km/h 65% 0.00 mm 0.00 W/m2
21:49 28.0 °C 21.0 °C 1013.5 hPa ENE 8 km/h 12 km/h 65% 0.00 mm 0.00 W/m2
21:54 28.0 °C 21.0 °C 1013.4 hPa NE 8 km/h 8 km/h 65% 0.00 mm 0.00 W/m2
21:59 28.0 °C 21.0 °C 1013.4 hPa ENE 11 km/h 12 km/h 65% 0.00 mm 0.00 W/m2
22:04 28.0 °C 21.0 °C 1013.4 hPa NE 10 km/h 16 km/h 65% 0.00 mm 0.00 W/m2
22:09 28.0 °C 21.0 °C 1013.5 hPa ENE 12 km/h 16 km/h 65% 0.00 mm 0.00 W/m2
22:14 28.0 °C 21.0 °C 1013.5 hPa NE 9 km/h 12 km/h 65% 0.00 mm 0.00 W/m2
22:19 28.0 °C 21.0 °C 1013.5 hPa NE 4 km/h 8 km/h 65% 0.00 mm 0.00 W/m2
22:24 28.0 °C 20.0 °C 1013.5 hPa NE 6 km/h 12 km/h 65% 0.00 mm 0.00 W/m2
22:29 28.0 °C 20.0 °C 1013.5 hPa NE 5 km/h 8 km/h 65% 0.00 mm 0.00 W/m2
22:34 28.0 °C 20.0 °C 1013.5 hPa NE 3 km/h 4 km/h 65% 0.00 mm 0.00 W/m2
22:39 27.0 °C 21.0 °C 1013.5 hPa NNE 3 km/h 4 km/h 66% 0.00 mm 0.00 W/m2
22:44 27.0 °C 20.0 °C 1013.4 hPa NE 6 km/h 12 km/h 66% 0.00 mm 0.00 W/m2
22:49 27.0 °C 20.0 °C 1013.3 hPa ENE 9 km/h 12 km/h 66% 0.00 mm 0.00 W/m2
22:54 27.0 °C 20.0 °C 1013.3 hPa NE 6 km/h 8 km/h 66% 0.00 mm 0.00 W/m2
22:59 27.0 °C 20.0 °C 1013.2 hPa NE 5 km/h 8 km/h 66% 0.00 mm 0.00 W/m2
23:04 27.0 °C 20.0 °C 1013.3 hPa NE 5 km/h 8 km/h 66% 0.00 mm 0.00 W/m2
23:09 27.0 °C 20.0 °C 1013.1 hPa NE 4 km/h 4 km/h 66% 0.00 mm 0.00 W/m2
23:14 27.0 °C 20.0 °C 1013.1 hPa NE 4 km/h 4 km/h 66% 0.00 mm 0.00 W/m2
23:19 27.0 °C 21.0 °C 1013.0 hPa NNE 4 km/h 4 km/h 67% 0.00 mm 0.00 W/m2
23:24 27.0 °C 21.0 °C 1013.0 hPa NNE 4 km/h 4 km/h 67% 0.00 mm 0.00 W/m2
23:29 27.0 °C 21.0 °C 1012.9 hPa NE 5 km/h 8 km/h 67% 0.00 mm 0.00 W/m2
23:34 27.0 °C 20.0 °C 1012.9 hPa NE 3 km/h 4 km/h 67% 0.00 mm 0.00 W/m2
23:39 27.0 °C 20.0 °C 1012.8 hPa NE 5 km/h 8 km/h 67% 0.00 mm 0.00 W/m2
23:44 27.0 °C 21.0 °C 1012.8 hPa ENE 8 km/h 8 km/h 68% 0.00 mm 0.00 W/m2
23:49 27.0 °C 21.0 °C 1012.7 hPa NNW 2 km/h 4 km/h 68% 0.00 mm 0.00 W/m2
23:54 27.0 °C 21.0 °C 1012.7 hPa NE 6 km/h 8 km/h 68% 0.00 mm 0.00 W/m2
23:59 27.0 °C 21.0 °C 1012.7 hPa NE 4 km/h 4 km/h 68% 0.00 mm 0.00 W/m2
PIMOHWEATHER Philippines
Compliments of Weather Underground - 2 mb